Regional Weather Roundup
Issued by NWS

Home | Current Version | Previous Version | Text Only | Print | Product List | Glossary Off
Versions: 1 2 3 4 5 6 7 8 9 10 11 12 13 14 15 16 17 18 19 20 21 22 23 24 25 26 27 28 29 30 31 32 33 34 35 36 37 38 39 40 41 42 43 44 45 46 47 48 49 50

000
ASUS43 KDTX 282001
RWRMI
MICHIGAN HOURLY REGIONAL WEATHER ROUNDUP
NATIONAL WEATHER SERVICE DETROIT/PONTIAC MI
300 PM EST WED JAN 28 2015

NOTE: "FAIR" INDICATES FEW OR NO CLOUDS BELOW 12,000 FEET WITH NO
SIGNIFICANT WEATHER AND/OR OBSTRUCTION TO VISIBILITY.

MIZ047>049-052>055-059>063-066>070-074>076-081>083-282100-
SOUTHEAST LOWER MICHIGAN

CITY           SKY/WX    TMP DP  RH WIND       PRES   REMARKS
ADRIAN         MOSUNNY   25  13  60 S9        30.28F WCI  15
ALMA           MOSUNNY   30  13  49 SW7       30.23F WCI  23
ANN ARBOR      SUNNY     28  12  51 S8        30.26F WCI  20
BAD AXE        SUNNY     27  10  48 S6        30.25F WCI  20
CARO           MOSUNNY   31   8  37 S3        30.24S
DETROIT CITY   SUNNY     28  13  53 S9        30.29F WCI  19
DETROIT        PTSUNNY   28  14  55 SE8       30.29F WCI  20
FLINT          SUNNY     32   6  33 S7        30.24F WCI  26
GROSSE ILE     SUNNY     25  16  68 S8        30.28F WCI  16
HILLSDALE      CLOUDY    26   9  48 CALM      30.23F
HOWELL         SUNNY     30   7  38 S8        30.23S WCI  22

CITY           SKY/WX    TMP DP  RH WIND       PRES   REMARKS
JACKSON        PTSUNNY   29   8  41 S12       30.23F WCI  19
LAMBERTVILLE   SUNNY     30  14  51 S5        30.29F WCI  25
LANSING        PTSUNNY   31  10  41 S9        30.23F WCI  23
LAPEER         FAIR      30   4  32 SW6       30.24F WCI  24
MASON          PTSUNNY   29   8  42 S12       30.23S WCI  19
MONROE         SUNNY     27  18  69 S9        30.27F WCI  17
MT. CLEMENS    PTSUNNY   27  15  61 S13       30.26F WCI  16
PONTIAC        PTSUNNY   29   4  34 S9        30.23F WCI  20
PORT HOPE        N/A     27   8  44 VRB5      30.24F WCI  22
PORT HURON     SUNNY     27   9  46 S10       30.29S WCI  17
TRI CITIES     SUNNY     32  12  43 S9        30.24F WCI  24
TROY           SUNNY     33   4  29 S6        30.28F WCI  27
SAGINAW HB     SUNNY     32   9  37 S8        30.24F WCI  25
$$
MIZ043>046-050>051-056>058-064>065-071>073-077>080-282100-
SOUTHWEST LOWER MICHIGAN

CITY           SKY/WX    TMP DP  RH WIND       PRES   REMARKS
BATTLE CREEK   PTSUNNY   31   9  39 S14       30.21F WCI  21
BENTON HARBOR  MOSUNNY   31  14  49 SE13      30.20S WCI  21
BIG RAPIDS     CLOUDY    29  14  52 S9        30.16F WCI  21
COLDWATER      PTSUNNY   27   5  38 S9        30.22F WCI  18
FREMONT        CLOUDY    29   5  35 SE8       30.17F WCI  21
HOLLAND        MOSUNNY   33   8  35 SE12      30.19F WCI  24
GRAND RAPIDS   CLOUDY    30   9  41 SE10      30.20F WCI  21
IONIA          FAIR      31  11  43 S8        30.20F WCI  24
KALAMAZOO      MOSUNNY   29   9  43 S10       30.21F WCI  20
LUDINGTON      PTSUNNY   32  12  44 S10G18    30.15F WCI  24
MARSHALL       PTSUNNY   29   9  44 S9        30.22F WCI  20
MOUNT PLEASANT MOSUNNY   30  13  49 SE9       30.21F WCI  21
MUSKEGON       PTSUNNY   32  11  41 SE12      30.18F WCI  23
SOUTH HAVEN    PTSUNNY   32   4  30 S12G17    30.19F WCI  23
$$
MIZ016>042-282100-
NORTHERN LOWER MICHIGAN

CITY           SKY/WX    TMP DP  RH WIND       PRES   REMARKS
ALPENA         PTSUNNY   28   6  39 E7        30.20F WCI  21
BEAVER ISLAND  PTSUNNY   28  19  69 CALM      30.15F
BELLAIRE       MOSUNNY   30   9  42 CALM      30.16F
CADILLAC       CLOUDY    27  16  62 S7        30.12F WCI  20
CHARLEVOIX     PTSUNNY   28  11  48 S8        30.19F WCI  20
FRANKFORT      CLOUDY    30  22  72 S8        30.14F WCI  23
GAYLORD        PTSUNNY   27   7  42 S9        30.12F WCI  18
GRAYLING       MOSUNNY   30   6  37 S5        30.15F WCI  25
HARBOR SPRINGS PTSUNNY   29   1  29 CALM      30.16F
HOUGHTON LAKE    N/A    N/A N/A N/A MISG      30.16F
MANISTEE       CLOUDY    30  18  59 S9        30.15F WCI  22
OSCODA         MOSUNNY   28  11  48 S7        30.22F WCI  21
PELLSTON       PTSUNNY   28   8  43 SE5       30.16F WCI  23
ROGERS CITY    MOSUNNY   27  10  49 SE6       30.20F WCI  20
TRAVERSE CITY  CLOUDY    31  15  52 SW7       30.14F WCI  24
$$
MIZ007>008-015-282100-
EASTERN UPPER MICHIGAN

CITY           SKY/WX    TMP DP  RH WIND       PRES   REMARKS
KINROSS        PTSUNNY   27  16  63 SE10      30.16F WCI  17
MACKINAC ISLAN PTSUNNY   26   5  40 SE6       30.16F WCI  19
NEWBERRY       CLOUDY    23  18  80 SE14      30.12F WCI  11
S. S. MARIE    MOSUNNY   23  10  57 SE6       30.15F WCI  16
MUNISING         N/A     30  23  75 S9G17     30.06F WCI  22
$$
MIZ004>006-011>014-085-282100-
CENTRAL UPPER MICHIGAN

CITY           SKY/WX    TMP DP  RH WIND       PRES   REMARKS
MANISTIQUE     CLOUDY    28  24  83 S12       30.11F WCI  18
ESCANABA       CLOUDY    28  21  74 S9        30.10F WCI  20
MENOMINEE      CLOUDY    30  23  74 SW9       30.08F WCI  22
SAWYER-GWINN   CLOUDY    27  19  74 S18       30.01F WCI  13
$$
MIZ001>003-009>011-084-282100-
WESTERN UPPER MICHIGAN

CITY           SKY/WX    TMP DP  RH WIND       PRES   REMARKS
IRON MOUNTAIN  PTSUNNY   29  20  69 S12       30.02F WCI  19
HOUGHTON       CLOUDY    29  21  72 SE14      29.93F WCI  18
COPPER HARBOR    N/A     30  23  75 S6        29.96F WCI  24
IRONWOOD       CLOUDY    30  25  80 S10       29.86F WCI  21
$$

ABBREVIATIONS USED IN REMARKS
   TC - TEMPERATURE IN CELSIUS
  WCI - WIND CHILL INDEX
   HX - HEAT INDEX
  VSB - VISIBILITY




USA.gov is the U.S. government's official web portal to all federal, state and local government web resources and services.